contact:dominique.lefevre@mio.osupytheas.fr, maurice.libes@osupytheas.fr, didier.mallarino@osupytheas.fr
Project:EMSO http://www.emso-fr.org/EMSO-France
Depth: 2436.0 m
Title:EMSO Ligure Ouest : Data MII capteur OXYGEN
DateTime,Latitude,Longitude,Optode-Type,Optode_Serial,Oxygen,Saturation_Oxygen,Temperature
DateTime,Latitude,Longitude,Optode-Type,Optode_Serial,µmol.l-1,%,degC
2019-07-29T00:02:33,42.805,6.029,4330,1995,192.401,58.843,13.291
2019-07-29T00:05:33,42.805,6.029,4330,1995,192.456,58.859,13.290
2019-07-29T00:08:33,42.805,6.029,4330,1995,192.475,58.866,13.292
2019-07-29T00:11:33,42.805,6.029,4330,1995,192.565,58.893,13.291
2019-07-29T00:14:33,42.805,6.029,4330,1995,192.524,58.880,13.291
2019-07-29T00:17:33,42.805,6.029,4330,1995,192.512,58.877,13.291
2019-07-29T00:20:33,42.805,6.029,4330,1995,192.500,58.874,13.291
2019-07-29T00:23:33,42.805,6.029,4330,1995,192.599,58.903,13.291
2019-07-29T00:26:33,42.805,6.029,4330,1995,192.617,58.908,13.291
2019-07-29T00:29:33,42.805,6.029,4330,1995,192.686,58.929,13.290
2019-07-29T00:32:33,42.805,6.029,4330,1995,192.806,58.966,13.290
2019-07-29T00:35:33,42.805,6.029,4330,1995,192.712,58.938,13.291
2019-07-29T00:38:33,42.805,6.029,4330,1995,192.750,58.949,13.290
2019-07-29T00:41:33,42.805,6.029,4330,1995,192.767,58.953,13.290
2019-07-29T00:44:33,42.805,6.029,4330,1995,192.744,58.946,13.290
2019-07-29T00:47:33,42.805,6.029,4330,1995,192.779,58.957,13.290
2019-07-29T00:50:33,42.805,6.029,4330,1995,192.810,58.965,13.289
2019-07-29T00:53:33,42.805,6.029,4330,1995,192.860,58.982,13.290
2019-07-29T00:56:33,42.805,6.029,4330,1995,192.870,58.984,13.289
2019-07-29T00:59:33,42.805,6.029,4330,1995,192.866,58.983,13.289
2019-07-29T01:02:33,42.805,6.029,4330,1995,192.902,58.994,13.289
2019-07-29T01:05:33,42.805,6.029,4330,1995,192.892,58.991,13.289
2019-07-29T01:11:33,42.805,6.029,4330,1995,192.974,59.014,13.288
2019-07-29T01:14:33,42.805,6.029,4330,1995,192.903,58.996,13.290
2019-07-29T01:17:33,42.805,6.029,4330,1995,192.981,59.019,13.290
2019-07-29T01:20:33,42.805,6.029,4330,1995,192.931,59.005,13.291
2019-07-29T01:23:33,42.805,6.029,4330,1995,193.018,59.030,13.290
2019-07-29T01:26:33,42.805,6.029,4330,1995,193.035,59.036,13.291
2019-07-29T01:29:33,42.805,6.029,4330,1995,193.101,59.058,13.292
2019-07-29T01:32:33,42.805,6.029,4330,1995,193.072,59.047,13.290
2019-07-29T01:35:33,42.805,6.029,4330,1995,193.093,59.052,13.290
2019-07-29T01:38:33,42.805,6.029,4330,1995,193.089,59.052,13.290
2019-07-29T01:41:33,42.805,6.029,4330,1995,193.081,59.049,13.290
2019-07-29T01:44:33,42.805,6.029,4330,1995,193.151,59.071,13.290
2019-07-29T01:47:33,42.805,6.029,4330,1995,193.203,59.086,13.289
2019-07-29T01:50:33,42.805,6.029,4330,1995,193.128,59.064,13.290
2019-07-29T01:53:33,42.805,6.029,4330,1995,193.183,59.080,13.289
2019-07-29T01:56:33,42.805,6.029,4330,1995,193.165,59.075,13.290
2019-07-29T01:59:33,42.805,6.029,4330,1995,193.199,59.084,13.289
2019-07-29T02:02:33,42.805,6.029,4330,1995,193.155,59.070,13.289
2019-07-29T02:05:33,42.805,6.029,4330,1995,193.217,59.090,13.289
2019-07-29T02:08:33,42.805,6.029,4330,1995,193.275,59.107,13.289
2019-07-29T02:11:33,42.805,6.029,4330,1995,193.275,59.107,13.289
2019-07-29T02:14:33,42.805,6.029,4330,1995,193.250,59.100,13.289
2019-07-29T02:17:33,42.805,6.029,4330,1995,193.219,59.092,13.290
2019-07-29T02:20:33,42.805,6.029,4330,1995,193.205,59.087,13.290
2019-07-29T02:23:33,42.805,6.029,4330,1995,193.206,59.087,13.290
2019-07-29T02:26:33,42.805,6.029,4330,1995,193.188,59.082,13.290
2019-07-29T02:29:33,42.805,6.029,4330,1995,193.101,59.055,13.289
2019-07-29T02:32:33,42.805,6.029,4330,1995,193.189,59.082,13.290
2019-07-29T02:35:33,42.805,6.029,4330,1995,193.084,59.051,13.290
2019-07-29T02:38:33,42.805,6.029,4330,1995,193.168,59.076,13.290
2019-07-29T02:41:33,42.805,6.029,4330,1995,193.147,59.069,13.290
2019-07-29T02:44:33,42.805,6.029,4330,1995,193.222,59.093,13.290
2019-07-29T02:47:33,42.805,6.029,4330,1995,193.166,59.075,13.289
2019-07-29T02:50:33,42.805,6.029,4330,1995,193.103,59.056,13.290
2019-07-29T02:53:33,42.805,6.029,4330,1995,193.211,59.089,13.290
2019-07-29T02:56:33,42.805,6.029,4330,1995,193.148,59.070,13.290
2019-07-29T02:59:33,42.805,6.029,4330,1995,193.234,59.096,13.290
2019-07-29T03:02:33,42.805,6.029,4330,1995,193.184,59.082,13.291
2019-07-29T03:05:33,42.805,6.029,4330,1995,193.168,59.076,13.290
2019-07-29T03:08:33,42.805,6.029,4330,1995,193.154,59.072,13.290
2019-07-29T03:11:33,42.805,6.029,4330,1995,193.163,59.075,13.291
2019-07-29T03:14:33,42.805,6.029,4330,1995,193.171,59.077,13.290
2019-07-29T03:17:33,42.805,6.029,4330,1995,193.173,59.078,13.290
2019-07-29T03:20:33,42.805,6.029,4330,1995,193.171,59.079,13.291
2019-07-29T03:23:33,42.805,6.029,4330,1995,193.139,59.068,13.291
2019-07-29T03:26:33,42.805,6.029,4330,1995,193.069,59.048,13.292
2019-07-29T03:29:33,42.805,6.029,4330,1995,193.070,59.049,13.292
2019-07-29T03:32:33,42.805,6.029,4330,1995,193.133,59.066,13.291
2019-07-29T03:35:33,42.805,6.029,4330,1995,193.149,59.071,13.291
2019-07-29T03:38:33,42.805,6.029,4330,1995,193.166,59.076,13.291
2019-07-29T03:47:33,42.805,6.029,4330,1995,193.125,59.062,13.290
2019-07-29T03:50:33,42.805,6.029,4330,1995,193.093,59.053,13.290
2019-07-29T03:53:33,42.805,6.029,4330,1995,193.164,59.077,13.291
2019-07-29T03:56:33,42.805,6.029,4330,1995,193.172,59.079,13.291
2019-07-29T03:59:33,42.805,6.029,4330,1995,193.172,59.077,13.290
2019-07-29T04:02:33,42.805,6.029,4330,1995,193.197,59.085,13.290
2019-07-29T04:05:33,42.805,6.029,4330,1995,193.068,59.047,13.291
2019-07-29T04:08:33,42.805,6.029,4330,1995,193.058,59.044,13.291
2019-07-29T04:11:33,42.805,6.029,4330,1995,193.135,59.067,13.291
2019-07-29T04:14:33,42.805,6.029,4330,1995,193.119,59.063,13.291
2019-07-29T04:17:33,42.805,6.029,4330,1995,193.115,59.062,13.291
2019-07-29T04:20:33,42.805,6.029,4330,1995,193.081,59.051,13.291
2019-07-29T04:23:33,42.805,6.029,4330,1995,193.019,59.032,13.291
2019-07-29T04:26:33,42.805,6.029,4330,1995,193.033,59.035,13.290
2019-07-29T04:29:33,42.805,6.029,4330,1995,192.989,59.023,13.291
2019-07-29T04:32:33,42.805,6.029,4330,1995,193.131,59.066,13.291
2019-07-29T04:35:33,42.805,6.029,4330,1995,193.074,59.049,13.291
2019-07-29T04:38:33,42.805,6.029,4330,1995,193.088,59.052,13.290
2019-07-29T04:41:33,42.805,6.029,4330,1995,193.128,59.065,13.291
2019-07-29T04:44:33,42.805,6.029,4330,1995,193.025,59.034,13.291
2019-07-29T04:47:33,42.805,6.029,4330,1995,192.976,59.019,13.291
2019-07-29T04:50:33,42.805,6.029,4330,1995,192.978,59.020,13.292
2019-07-29T04:53:33,42.805,6.029,4330,1995,192.881,58.990,13.291
2019-07-29T04:56:33,42.805,6.029,4330,1995,192.985,59.020,13.290
2019-07-29T04:59:33,42.805,6.029,4330,1995,192.969,59.015,13.290
2019-07-29T05:02:33,42.805,6.029,4330,1995,192.968,59.016,13.291
2019-07-29T05:05:33,42.805,6.029,4330,1995,192.964,59.013,13.290
2019-07-29T05:08:33,42.805,6.029,4330,1995,192.879,58.987,13.290
2019-07-29T05:11:33,42.805,6.029,4330,1995,192.879,58.987,13.290
2019-07-29T05:14:33,42.805,6.029,4330,1995,192.920,59.001,13.290
2019-07-29T05:17:33,42.805,6.029,4330,1995,192.927,59.002,13.290
2019-07-29T05:20:33,42.805,6.029,4330,1995,192.816,58.968,13.290
2019-07-29T05:23:33,42.805,6.029,4330,1995,192.850,58.978,13.290
2019-07-29T05:26:33,42.805,6.029,4330,1995,192.939,59.006,13.290
2019-07-29T05:29:33,42.805,6.029,4330,1995,192.857,58.981,13.290
2019-07-29T05:32:33,42.805,6.029,4330,1995,192.872,58.985,13.289
2019-07-29T05:35:33,42.805,6.029,4330,1995,192.881,58.988,13.290
2019-07-29T05:38:33,42.805,6.029,4330,1995,192.831,58.973,13.290
2019-07-29T05:41:33,42.805,6.029,4330,1995,192.905,58.994,13.289
2019-07-29T05:44:33,42.805,6.029,4330,1995,192.921,58.999,13.289
2019-07-29T05:47:33,42.805,6.029,4330,1995,192.937,59.004,13.289
2019-07-29T05:50:33,42.805,6.029,4330,1995,192.940,59.005,13.289
2019-07-29T05:53:33,42.805,6.029,4330,1995,192.968,59.014,13.290
2019-07-29T05:56:33,42.805,6.029,4330,1995,192.915,58.998,13.290
2019-07-29T05:59:33,42.805,6.029,4330,1995,192.766,58.953,13.290
2019-07-29T06:02:33,42.805,6.029,4330,1995,192.832,58.974,13.290
2019-07-29T06:05:33,42.805,6.029,4330,1995,192.835,58.974,13.290
2019-07-29T06:08:33,42.805,6.029,4330,1995,192.835,58.974,13.290
2019-07-29T06:11:33,42.805,6.029,4330,1995,192.756,58.951,13.291
2019-07-29T06:14:33,42.805,6.029,4330,1995,192.842,58.977,13.290
2019-07-29T06:26:33,42.805,6.029,4330,1995,192.758,58.948,13.288
2019-07-29T06:29:33,42.805,6.029,4330,1995,192.833,58.973,13.290
2019-07-29T06:32:33,42.805,6.029,4330,1995,192.863,58.985,13.291
2019-07-29T06:35:33,42.805,6.029,4330,1995,192.776,58.957,13.291
2019-07-29T06:38:33,42.805,6.029,4330,1995,192.860,58.984,13.291
2019-07-29T06:41:33,42.805,6.029,4330,1995,192.865,58.983,13.290
2019-07-29T06:44:33,42.805,6.029,4330,1995,192.903,58.996,13.290
2019-07-29T06:47:33,42.805,6.029,4330,1995,192.790,58.961,13.290
2019-07-29T06:50:33,42.805,6.029,4330,1995,192.841,58.977,13.290
2019-07-29T06:53:33,42.805,6.029,4330,1995,192.812,58.968,13.290
2019-07-29T06:56:33,42.805,6.029,4330,1995,192.859,58.981,13.290
2019-07-29T06:59:33,42.805,6.029,4330,1995,192.849,58.979,13.290
2019-07-29T07:02:33,42.805,6.029,4330,1995,192.798,58.963,13.290
2019-07-29T07:05:33,42.805,6.029,4330,1995,192.834,58.975,13.290
2019-07-29T07:08:33,42.805,6.029,4330,1995,192.765,58.952,13.289
2019-07-29T07:11:33,42.805,6.029,4330,1995,192.778,58.957,13.290
2019-07-29T07:14:32,42.805,6.029,4330,1995,192.785,58.957,13.289
2019-07-29T07:17:32,42.805,6.029,4330,1995,192.788,58.959,13.289
2019-07-29T07:20:32,42.805,6.029,4330,1995,192.694,58.931,13.290
2019-07-29T07:23:32,42.805,6.029,4330,1995,192.671,58.924,13.290
2019-07-29T07:26:32,42.805,6.029,4330,1995,192.608,58.904,13.290
2019-07-29T07:29:32,42.805,6.029,4330,1995,192.647,58.918,13.291
2019-07-29T07:32:32,42.805,6.029,4330,1995,192.730,58.941,13.289
2019-07-29T07:35:32,42.805,6.029,4330,1995,192.652,58.917,13.289
2019-07-29T07:38:32,42.805,6.029,4330,1995,192.678,58.925,13.289
2019-07-29T07:41:32,42.805,6.029,4330,1995,192.676,58.924,13.289
2019-07-29T07:44:32,42.805,6.029,4330,1995,192.647,58.917,13.290
2019-07-29T07:47:32,42.805,6.029,4330,1995,192.778,58.956,13.290
2019-07-29T07:50:32,42.805,6.029,4330,1995,192.686,58.929,13.290
2019-07-29T07:53:32,42.805,6.029,4330,1995,192.771,58.955,13.290
2019-07-29T07:56:32,42.805,6.029,4330,1995,192.750,58.949,13.290
2019-07-29T07:59:32,42.805,6.029,4330,1995,192.641,58.914,13.290
2019-07-29T08:02:32,42.805,6.029,4330,1995,192.614,58.908,13.291
2019-07-29T08:05:32,42.805,6.029,4330,1995,192.616,58.909,13.291
2019-07-29T08:08:32,42.805,6.029,4330,1995,192.637,58.915,13.291
2019-07-29T08:11:32,42.805,6.029,4330,1995,192.575,58.897,13.292
2019-07-29T08:14:32,42.805,6.029,4330,1995,192.576,58.898,13.292
2019-07-29T08:17:32,42.805,6.029,4330,1995,192.559,58.892,13.292
2019-07-29T08:20:32,42.805,6.029,4330,1995,192.565,58.894,13.291
2019-07-29T08:23:32,42.805,6.029,4330,1995,192.523,58.883,13.293
2019-07-29T08:26:32,42.805,6.029,4330,1995,192.505,58.874,13.291
2019-07-29T08:29:32,42.805,6.029,4330,1995,192.521,58.882,13.293
2019-07-29T08:32:32,42.805,6.029,4330,1995,192.507,58.875,13.291
2019-07-29T08:35:32,42.805,6.029,4330,1995,192.477,58.867,13.292
2019-07-29T08:38:32,42.805,6.029,4330,1995,192.494,58.873,13.293
2019-07-29T08:41:32,42.805,6.029,4330,1995,192.439,58.857,13.293
2019-07-29T08:44:32,42.805,6.029,4330,1995,192.420,58.852,13.293
2019-07-29T08:47:32,42.805,6.029,4330,1995,192.396,58.844,13.293
2019-07-29T08:50:32,42.805,6.029,4330,1995,192.364,58.833,13.292
2019-07-29T08:53:32,42.805,6.029,4330,1995,192.410,58.847,13.292
2019-07-29T09:02:32,42.805,6.029,4330,1995,192.374,58.832,13.289
2019-07-29T09:05:32,42.805,6.029,4330,1995,192.499,58.873,13.291
2019-07-29T09:08:32,42.805,6.029,4330,1995,192.418,58.848,13.291
2019-07-29T09:11:32,42.805,6.029,4330,1995,192.353,58.830,13.292
2019-07-29T09:14:32,42.805,6.029,4330,1995,192.382,58.838,13.292
2019-07-29T09:17:32,42.805,6.029,4330,1995,192.337,58.823,13.291
2019-07-29T09:20:32,42.805,6.029,4330,1995,192.357,58.832,13.293
2019-07-29T09:23:32,42.805,6.029,4330,1995,192.405,58.845,13.292
2019-07-29T09:26:32,42.805,6.029,4330,1995,192.436,58.856,13.293
2019-07-29T09:29:32,42.805,6.029,4330,1995,192.402,58.847,13.294
2019-07-29T09:32:32,42.805,6.029,4330,1995,192.319,58.820,13.292
2019-07-29T09:35:32,42.805,6.029,4330,1995,192.333,58.825,13.293
2019-07-29T09:38:32,42.805,6.029,4330,1995,192.309,58.819,13.294
2019-07-29T09:41:32,42.805,6.029,4330,1995,192.177,58.779,13.294
2019-07-29T09:44:32,42.805,6.029,4330,1995,192.178,58.778,13.293
2019-07-29T09:47:32,42.805,6.029,4330,1995,192.296,58.813,13.293
2019-07-29T09:50:32,42.805,6.029,4330,1995,192.146,58.767,13.293
2019-07-29T09:53:32,42.805,6.029,4330,1995,192.068,58.745,13.294
2019-07-29T09:56:32,42.805,6.029,4330,1995,192.274,58.808,13.294
2019-07-29T09:59:32,42.805,6.029,4330,1995,192.224,58.791,13.293
2019-07-29T10:02:32,42.805,6.029,4330,1995,192.267,58.803,13.292
2019-07-29T10:05:32,42.805,6.029,4330,1995,192.284,58.807,13.291
2019-07-29T10:08:32,42.805,6.029,4330,1995,192.166,58.774,13.293
2019-07-29T10:11:32,42.805,6.029,4330,1995,192.088,58.751,13.294
2019-07-29T10:14:32,42.805,6.029,4330,1995,192.104,58.752,13.291
2019-07-29T10:17:32,42.805,6.029,4330,1995,192.250,58.796,13.290
2019-07-29T10:20:32,42.805,6.029,4330,1995,192.316,58.817,13.291
2019-07-29T10:23:32,42.805,6.029,4330,1995,192.240,58.794,13.291
2019-07-29T10:26:32,42.805,6.029,4330,1995,192.012,58.724,13.291
2019-07-29T10:29:32,42.805,6.029,4330,1995,192.020,58.726,13.290
2019-07-29T10:32:32,42.805,6.029,4330,1995,191.989,58.716,13.291
2019-07-29T10:35:32,42.805,6.029,4330,1995,191.915,58.695,13.291
2019-07-29T10:38:32,42.805,6.029,4330,1995,191.959,58.708,13.291
2019-07-29T10:41:32,42.805,6.029,4330,1995,191.972,58.711,13.290
2019-07-29T10:44:32,42.805,6.029,4330,1995,192.070,58.741,13.290
2019-07-29T10:47:32,42.805,6.029,4330,1995,192.044,58.732,13.290
2019-07-29T10:50:32,42.805,6.029,4330,1995,192.002,58.720,13.290
2019-07-29T10:53:32,42.805,6.029,4330,1995,191.973,58.711,13.290
2019-07-29T10:56:32,42.805,6.029,4330,1995,191.955,58.705,13.290
2019-07-29T10:59:32,42.805,6.029,4330,1995,192.096,58.748,13.290
2019-07-29T11:02:32,42.805,6.029,4330,1995,192.083,58.745,13.291
2019-07-29T11:05:32,42.805,6.029,4330,1995,192.048,58.734,13.290
2019-07-29T11:08:32,42.805,6.029,4330,1995,192.108,58.754,13.291
2019-07-29T11:11:32,42.805,6.029,4330,1995,192.007,58.724,13.292
2019-07-29T11:14:32,42.805,6.029,4330,1995,191.998,58.721,13.292
2019-07-29T11:17:32,42.805,6.029,4330,1995,191.823,58.667,13.292
2019-07-29T11:20:32,42.805,6.029,4330,1995,191.922,58.697,13.291
2019-07-29T11:23:32,42.805,6.029,4330,1995,191.919,58.698,13.293
2019-07-29T11:26:32,42.805,6.029,4330,1995,191.859,58.679,13.292
2019-07-29T11:29:32,42.805,6.029,4330,1995,191.855,58.678,13.293
2019-07-29T11:35:32,42.805,6.029,4330,1995,192.022,58.725,13.290
2019-07-29T11:38:32,42.805,6.029,4330,1995,191.936,58.698,13.289
2019-07-29T11:41:32,42.805,6.029,4330,1995,191.927,58.698,13.291
2019-07-29T11:44:32,42.805,6.029,4330,1995,191.976,58.713,13.291
2019-07-29T11:47:32,42.805,6.029,4330,1995,191.902,58.692,13.292
2019-07-29T11:50:32,42.805,6.029,4330,1995,191.898,58.689,13.291
2019-07-29T11:53:32,42.805,6.029,4330,1995,191.973,58.710,13.290
2019-07-29T11:56:32,42.805,6.029,4330,1995,191.984,58.716,13.292
2019-07-29T11:59:32,42.805,6.029,4330,1995,191.995,58.718,13.291
2019-07-29T12:02:32,42.805,6.029,4330,1995,192.046,58.734,13.291
2019-07-29T12:05:32,42.805,6.029,4330,1995,192.086,58.746,13.290
2019-07-29T12:08:32,42.805,6.029,4330,1995,192.080,58.745,13.291
2019-07-29T12:11:32,42.805,6.029,4330,1995,192.078,58.746,13.292
2019-07-29T12:14:32,42.805,6.029,4330,1995,192.079,58.744,13.291
2019-07-29T12:17:32,42.805,6.029,4330,1995,191.972,58.712,13.291
2019-07-29T12:20:32,42.805,6.029,4330,1995,192.079,58.745,13.292
2019-07-29T12:23:32,42.805,6.029,4330,1995,191.959,58.710,13.293
2019-07-29T12:26:32,42.805,6.029,4330,1995,191.918,58.699,13.294
2019-07-29T12:29:32,42.805,6.029,4330,1995,191.965,58.710,13.291
2019-07-29T12:32:32,42.805,6.029,4330,1995,192.113,58.756,13.292
2019-07-29T12:35:32,42.805,6.029,4330,1995,192.106,58.754,13.292
2019-07-29T12:38:32,42.805,6.029,4330,1995,192.052,58.738,13.293
2019-07-29T12:41:32,42.805,6.029,4330,1995,191.987,58.721,13.294
2019-07-29T12:44:32,42.805,6.029,4330,1995,191.935,58.704,13.294
2019-07-29T12:47:32,42.805,6.029,4330,1995,191.970,58.716,13.295
2019-07-29T12:50:32,42.805,6.029,4330,1995,191.880,58.686,13.293
2019-07-29T12:53:32,42.805,6.029,4330,1995,191.872,58.685,13.294
2019-07-29T12:56:32,42.805,6.029,4330,1995,191.897,58.692,13.293
2019-07-29T12:59:32,42.805,6.029,4330,1995,191.908,58.696,13.294
2019-07-29T13:02:32,42.805,6.029,4330,1995,191.984,58.718,13.293
2019-07-29T13:05:32,42.805,6.029,4330,1995,191.990,58.720,13.294
2019-07-29T13:08:32,42.805,6.029,4330,1995,192.053,58.740,13.294
2019-07-29T13:11:32,42.805,6.029,4330,1995,192.038,58.736,13.294
2019-07-29T13:14:32,42.805,6.029,4330,1995,192.082,58.749,13.294
2019-07-29T13:17:32,42.805,6.029,4330,1995,192.074,58.746,13.293
2019-07-29T13:20:32,42.805,6.029,4330,1995,192.021,58.727,13.291
2019-07-29T13:23:32,42.805,6.029,4330,1995,191.996,58.720,13.292
2019-07-29T13:26:32,42.805,6.029,4330,1995,192.042,58.735,13.292
2019-07-29T13:29:32,42.805,6.029,4330,1995,192.029,58.731,13.292
2019-07-29T13:32:32,42.805,6.029,4330,1995,192.031,58.730,13.292
2019-07-29T13:35:32,42.805,6.029,4330,1995,192.035,58.733,13.292
2019-07-29T13:38:32,42.805,6.029,4330,1995,192.026,58.730,13.292
2019-07-29T13:41:32,42.805,6.029,4330,1995,192.080,58.745,13.291
2019-07-29T13:44:32,42.805,6.029,4330,1995,192.009,58.723,13.291
2019-07-29T13:47:32,42.805,6.029,4330,1995,191.960,58.708,13.291
2019-07-29T13:50:32,42.805,6.029,4330,1995,191.915,58.693,13.290
2019-07-29T13:53:32,42.805,6.029,4330,1995,192.006,58.723,13.292
2019-07-29T13:56:32,42.805,6.029,4330,1995,192.004,58.722,13.291
2019-07-29T13:59:32,42.805,6.029,4330,1995,191.991,58.717,13.291
2019-07-29T14:02:32,42.805,6.029,4330,1995,191.923,58.697,13.291
2019-07-29T14:05:32,42.805,6.029,4330,1995,191.944,58.702,13.290
2019-07-29T14:11:32,42.805,6.029,4330,1995,192.044,58.731,13.289
2019-07-29T14:14:32,42.805,6.029,4330,1995,191.977,58.716,13.293
2019-07-29T14:17:32,42.805,6.029,4330,1995,191.992,58.718,13.291
2019-07-29T14:20:32,42.805,6.029,4330,1995,191.992,58.719,13.292
2019-07-29T14:23:32,42.805,6.029,4330,1995,191.985,58.716,13.291
2019-07-29T14:26:32,42.805,6.029,4330,1995,192.002,58.721,13.291
2019-07-29T14:29:32,42.805,6.029,4330,1995,192.063,58.741,13.292
2019-07-29T14:32:32,42.805,6.029,4330,1995,192.030,58.730,13.292
2019-07-29T14:35:32,42.805,6.029,4330,1995,191.944,58.704,13.292
2019-07-29T14:38:32,42.805,6.029,4330,1995,191.987,58.715,13.290
2019-07-29T14:41:32,42.805,6.029,4330,1995,191.936,58.699,13.290
2019-07-29T14:44:32,42.805,6.029,4330,1995,192.044,58.735,13.292
2019-07-29T14:47:32,42.805,6.029,4330,1995,192.038,58.732,13.291
2019-07-29T14:50:32,42.805,6.029,4330,1995,192.005,58.722,13.291
2019-07-29T14:53:32,42.805,6.029,4330,1995,192.012,58.723,13.290
2019-07-29T14:56:32,42.805,6.029,4330,1995,191.998,58.718,13.290
2019-07-29T14:59:32,42.805,6.029,4330,1995,192.072,58.741,13.290
2019-07-29T15:02:32,42.805,6.029,4330,1995,192.139,58.761,13.289
2019-07-29T15:05:32,42.805,6.029,4330,1995,192.075,58.742,13.291
2019-07-29T15:08:32,42.805,6.029,4330,1995,192.047,58.734,13.290
2019-07-29T15:11:32,42.805,6.029,4330,1995,191.983,58.713,13.290
2019-07-29T15:14:32,42.805,6.029,4330,1995,192.008,58.722,13.291
2019-07-29T15:17:32,42.805,6.029,4330,1995,191.972,58.710,13.290
2019-07-29T15:20:32,42.805,6.029,4330,1995,192.130,58.759,13.290
2019-07-29T15:23:32,42.805,6.029,4330,1995,192.075,58.744,13.291
2019-07-29T15:26:32,42.805,6.029,4330,1995,192.113,58.754,13.290
2019-07-29T15:29:32,42.805,6.029,4330,1995,192.077,58.743,13.290
2019-07-29T15:32:32,42.805,6.029,4330,1995,192.089,58.746,13.290
2019-07-29T15:35:32,42.805,6.029,4330,1995,192.117,58.755,13.290
2019-07-29T15:38:32,42.805,6.029,4330,1995,192.139,58.762,13.290
2019-07-29T15:41:32,42.805,6.029,4330,1995,192.146,58.763,13.290
2019-07-29T15:44:32,42.805,6.029,4330,1995,192.136,58.761,13.290
2019-07-29T15:47:32,42.805,6.029,4330,1995,192.101,58.750,13.291
2019-07-29T15:50:32,42.805,6.029,4330,1995,192.031,58.730,13.291
2019-07-29T15:53:32,42.805,6.029,4330,1995,192.015,58.726,13.292
2019-07-29T15:56:32,42.805,6.029,4330,1995,192.018,58.726,13.291
2019-07-29T15:59:32,42.805,6.029,4330,1995,192.055,58.737,13.291
2019-07-29T16:02:32,42.805,6.029,4330,1995,192.072,58.742,13.291
2019-07-29T16:05:32,42.805,6.029,4330,1995,192.045,58.734,13.291
2019-07-29T16:08:32,42.805,6.029,4330,1995,192.081,58.746,13.292
2019-07-29T16:11:32,42.805,6.029,4330,1995,192.046,58.735,13.292
2019-07-29T16:14:32,42.805,6.029,4330,1995,192.145,58.766,13.292
2019-07-29T16:17:32,42.805,6.029,4330,1995,192.050,58.736,13.292
2019-07-29T16:20:32,42.805,6.029,4330,1995,192.008,58.723,13.291
2019-07-29T16:23:32,42.805,6.029,4330,1995,192.029,58.730,13.292
2019-07-29T16:26:32,42.805,6.029,4330,1995,192.110,58.755,13.292
2019-07-29T16:29:32,42.805,6.029,4330,1995,192.019,58.728,13.292
2019-07-29T16:32:32,42.805,6.029,4330,1995,192.100,58.751,13.291
2019-07-29T16:35:32,42.805,6.029,4330,1995,192.046,58.735,13.292
2019-07-29T16:38:32,42.805,6.029,4330,1995,192.113,58.756,13.292
2019-07-29T16:47:32,42.805,6.029,4330,1995,192.188,58.774,13.288
2019-07-29T16:50:32,42.805,6.029,4330,1995,192.182,58.775,13.290
2019-07-29T16:53:32,42.805,6.029,4330,1995,192.264,58.800,13.290
2019-07-29T16:56:32,42.805,6.029,4330,1995,192.249,58.795,13.290
2019-07-29T16:59:32,42.805,6.029,4330,1995,192.287,58.808,13.291
2019-07-29T17:02:32,42.805,6.029,4330,1995,192.301,58.813,13.292
2019-07-29T17:05:32,42.805,6.029,4330,1995,192.310,58.815,13.291
2019-07-29T17:08:32,42.805,6.029,4330,1995,192.365,58.832,13.291
2019-07-29T17:11:32,42.805,6.029,4330,1995,192.372,58.835,13.292
2019-07-29T17:14:32,42.805,6.029,4330,1995,192.378,58.835,13.291
2019-07-29T17:17:32,42.805,6.029,4330,1995,192.446,58.856,13.291
2019-07-29T17:20:32,42.805,6.029,4330,1995,192.372,58.835,13.292
2019-07-29T17:23:32,42.805,6.029,4330,1995,192.483,58.869,13.292
2019-07-29T17:26:32,42.805,6.029,4330,1995,192.464,58.863,13.292
2019-07-29T17:29:32,42.805,6.029,4330,1995,192.541,58.889,13.294
2019-07-29T17:32:32,42.805,6.029,4330,1995,192.456,58.859,13.291
2019-07-29T17:35:32,42.805,6.029,4330,1995,192.485,58.869,13.292
2019-07-29T17:38:32,42.805,6.029,4330,1995,192.483,58.868,13.291
2019-07-29T17:41:32,42.805,6.029,4330,1995,192.539,58.884,13.290
2019-07-29T17:44:32,42.805,6.029,4330,1995,192.484,58.869,13.292
2019-07-29T17:47:32,42.805,6.029,4330,1995,192.548,58.889,13.292
2019-07-29T17:50:32,42.805,6.029,4330,1995,192.564,58.893,13.291
2019-07-29T17:53:32,42.805,6.029,4330,1995,192.542,58.888,13.292
2019-07-29T17:56:32,42.805,6.029,4330,1995,192.458,58.860,13.291
2019-07-29T17:59:32,42.805,6.029,4330,1995,192.561,58.890,13.290
2019-07-29T18:02:32,42.805,6.029,4330,1995,192.502,58.873,13.290
2019-07-29T18:05:32,42.805,6.029,4330,1995,192.459,58.860,13.290
2019-07-29T18:08:32,42.805,6.029,4330,1995,192.500,58.872,13.290
2019-07-29T18:11:32,42.805,6.029,4330,1995,192.487,58.868,13.290
2019-07-29T18:14:32,42.805,6.029,4330,1995,192.468,58.863,13.291
2019-07-29T18:17:32,42.805,6.029,4330,1995,192.593,58.900,13.290
2019-07-29T18:20:32,42.805,6.029,4330,1995,192.612,58.906,13.290
2019-07-29T18:23:32,42.805,6.029,4330,1995,192.665,58.922,13.290
2019-07-29T18:26:32,42.805,6.029,4330,1995,192.572,58.895,13.291
2019-07-29T18:29:32,42.805,6.029,4330,1995,192.503,58.873,13.290
2019-07-29T18:32:32,42.805,6.029,4330,1995,192.520,58.878,13.290
2019-07-29T18:35:32,42.805,6.029,4330,1995,192.506,58.874,13.290
2019-07-29T18:38:32,42.805,6.029,4330,1995,192.577,58.895,13.289
2019-07-29T18:41:32,42.805,6.029,4330,1995,192.588,58.900,13.291
2019-07-29T18:44:32,42.805,6.029,4330,1995,192.611,58.907,13.291